{"data":{"norad_id":59412,"intl_designator":"2024-064Q","name":"STARLINK-31568","alt_names":[],"object_type":"PAYLOAD","status":"ACTIVE","operator":null,"country":"US","launch_date":"2024-04-05","launch_site_code":"AFETR","launch_vehicle":null,"mission":null,"orbit_class":"UNKNOWN","rcs_meters":null,"size_class":null,"mass_kg":null,"dimensions":null,"purposes":["comms"],"wikipedia_slug":null,"has_3d_model":false,"image_url":null,"decayed_at":null,"tle_current":{"epoch":"2026-09-21T15:36:34.089120Z","epoch_age_seconds":65693,"freshness":"FRESH","line1":"1 59412U 24064Q   26264.65039455  .00000578  00000+0  30526-4 0  9993","line2":"2 59412  43.0036  29.6432 0001258 275.6494  84.4214 15.27577019139198","mean_motion":15.27577019,"eccentricity":0.0001258,"inclination_deg":43.0036,"raan_deg":29.6432,"arg_perigee_deg":275.6494,"mean_anomaly_deg":84.4214,"bstar":3.0526e-5,"rev_number":13919,"period_min":94.266932671105,"perigee_km":482.19488390678,"apogee_km":483.92116057438,"semimajor_km":6861.1950222406,"source":"CELESTRAK","updated_at":"2026-09-22T09:00:48.916489Z"}}}